QPF
0.00 0.00 0.00 0.00 0.00 0.00 0.00 0.00 0.00 0.00 0.00 0.00 0.00 0.01 0.01 0.01 0.01 0.01 0.01 0.02 0.02 0.03 0.03 0.03 0.03 0.04 0.03 0.02 0.03 0.04 0.03 0.03 0.05 0.07 0.07 0.06 0.05 0.05 0.06 0.06 0.06 0.08 0.08 0.08
0.00 0.00 0.00 0.00 0.00 0.00 0.00 0.00 0.00 0.00 0.00 0.00 0.00 0.01 0.02 0.02 0.02 0.01 0.02 0.03 0.03 0.03 0.03 0.04 0.04 0.04 0.02 0.02 0.03 0.04 0.04 0.03 0.05 0.05 0.06 0.07 0.08 0.08 0.08 0.09 0.09 0.10 0.10 0.09
0.00 0.00 0.00 0.00 0.00 0.00 0.00 0.00 0.00 0.00 0.00 0.00 0.01 0.01 0.02 0.02 0.02 0.01 0.02 0.05 0.07 0.06 0.05 0.05 0.05 0.03 0.02 0.02 0.02 0.03 0.04 0.04 0.05 0.04 0.06 0.07 0.09 0.09 0.08 0.09 0.11 0.12 0.11 0.09
0.00 0.00 0.00 0.00 0.00 0.00 0.00 0.00 0.00 0.00 0.00 0.01 0.01 0.01 0.02 0.02 0.02 0.02 0.02 0.03 0.05 0.07 0.08 0.07 0.06 0.04 0.03 0.03 0.02 0.03 0.04 0.05 0.05 0.05 0.08 0.10 0.09 0.08 0.09 0.10 0.14 0.14 0.12 0.10
0.00 0.00 0.00 0.00 0.00 0.00 0.00 0.01 0.01 0.01 0.01 0.02 0.02 0.02 0.02 0.02 0.02 0.03 0.03 0.04 0.04 0.06 0.09 0.09 0.09 0.08 0.06 0.05 0.04 0.06 0.08 0.08 0.07 0.08 0.10 0.11 0.10 0.11 0.13 0.14 0.16 0.17 0.14 0.13
0.00 0.00 0.00 0.01 0.01 0.00 0.00 0.01 0.01 0.01 0.01 0.02 0.02 0.02 0.02 0.02 0.02 0.03 0.04 0.05 0.05 0.07 0.07 0.08 0.12 0.13 0.10 0.09 0.08 0.07 0.09 0.09 0.10 0.13 0.15 0.16 0.17 0.17 0.20 0.20 0.20 0.20 0.19 0.18
0.01 0.00 0.01 0.01 0.01 0.00 0.00 0.01 0.00 0.01 0.01 0.01 0.01 0.01 0.01 0.02 0.02 0.02 0.03 0.04 0.05 0.07 0.06 0.05 0.06 0.08 0.09 0.11 0.11 0.11 0.12 0.14 0.16 0.19 0.20 0.22 0.23 0.22 0.24 0.25 0.26 0.24 0.22 0.20
0.00 0.00 0.00 0.01 0.00 0.00 0.00 0.00 0.01 0.01 0.01 0.02 0.02 0.02 0.02 0.02 0.03 0.03 0.03 0.04 0.04 0.06 0.06 0.06 0.07 0.08 0.11 0.13 0.15 0.17 0.19 0.21 0.19 0.20 0.21 0.21 0.22 0.22 0.22 0.23 0.23 0.23 0.21 0.18
0.01 0.01 0.01 0.00 0.00 0.01 0.01 0.01 0.01 0.01 0.01 0.01 0.02 0.02 0.04 0.05 0.04 0.03 0.03 0.03 0.03 0.04 0.05 0.05 0.06 0.09 0.12 0.15 0.19 0.20 0.21 0.21 0.20 0.19 0.18 0.17 0.17 0.18 0.18 0.18 0.17 0.17 0.16 0.14
0.01 0.02 0.02 0.01 0.01 0.01 0.01 0.01 0.01 0.01 0.01 0.01 0.03 0.03 0.04 0.05 0.05 0.04 0.04 0.04 0.04 0.05 0.06 0.07 0.08 0.10 0.13 0.14 0.16 0.17 0.17 0.19 0.18 0.17 0.16 0.14 0.13 0.14 0.14 0.15 0.15 0.12 0.11 0.10
0.02 0.02 0.03 0.02 0.01 0.01 0.01 0.02 0.02 0.02 0.02 0.02 0.02 0.02 0.03 0.04 0.05 0.05 0.04 0.04 0.04 0.06 0.06 0.07 0.09 0.10 0.12 0.12 0.12 0.12 0.12 0.12 0.14 0.15 0.14 0.12 0.10 0.10 0.11 0.11 0.11 0.10 0.08 0.06
0.02 0.02 0.02 0.02 0.01 0.02 0.02 0.02 0.03 0.03 0.02 0.02 0.01 0.01 0.02 0.03 0.03 0.03 0.02 0.02 0.03 0.04 0.05 0.06 0.07 0.09 0.11 0.12 0.12 0.12 0.10 0.09 0.08 0.08 0.08 0.08 0.07 0.06 0.07 0.06 0.06 0.05 0.04 0.04
0.03 0.02 0.02 0.02 0.01 0.01 0.02 0.03 0.03 0.03 0.03 0.02 0.02 0.02 0.03 0.03 0.03 0.03 0.03 0.02 0.02 0.02 0.04 0.05 0.06 0.07 0.07 0.08 0.09 0.11 0.10 0.06 0.05 0.05 0.05 0.05 0.05 0.05 0.06 0.05 0.04 0.04 0.03 0.03
0.01 0.01 0.01 0.01 0.01 0.01 0.01 0.02 0.03 0.03 0.03 0.02 0.02 0.02 0.02 0.04 0.04 0.04 0.03 0.02 0.02 0.02 0.03 0.04 0.05 0.06 0.05 0.06 0.07 0.07 0.06 0.05 0.04 0.03 0.03 0.02 0.02 0.02 0.02 0.03 0.03 0.03 0.03 0.03
0.01 0.01 0.01 0.01 0.01 0.01 0.01 0.02 0.03 0.03 0.02 0.03 0.03 0.03 0.04 0.06 0.04 0.03 0.03 0.02 0.03 0.03 0.03 0.03 0.03 0.04 0.04 0.06 0.07 0.07 0.06 0.04 0.02 0.02 0.02 0.02 0.02 0.02 0.02 0.02 0.02 0.02 0.03 0.04
0.02 0.01 0.01 0.02 0.02 0.02 0.02 0.03 0.03 0.02 0.02 0.04 0.06 0.05 0.06 0.07 0.04 0.02 0.02 0.03 0.03 0.04 0.04 0.03 0.03 0.02 0.03 0.03 0.03 0.04 0.03 0.03 0.02 0.02 0.01 0.02 0.02 0.03 0.02 0.02 0.03 0.03 0.03 0.04
0.02 0.01 0.01 0.01 0.02 0.02 0.02 0.04 0.03 0.02 0.02 0.03 0.07 0.09 0.09 0.07 0.04 0.03 0.03 0.04 0.05 0.05 0.04 0.03 0.02 0.02 0.01 0.01 0.01 0.01 0.01 0.01 0.01 0.01 0.01 0.01 0.02 0.02 0.02 0.02 0.02 0.03 0.04 0.04
0.03 0.02 0.01 0.01 0.01 0.02 0.03 0.04 0.04 0.03 0.03 0.04 0.08 0.10 0.09 0.07 0.05 0.04 0.05 0.05 0.05 0.04 0.03 0.03 0.02 0.02 0.02 0.01 0.01 0.01 0.01 0.01 0.01 0.01 0.01 0.02 0.02 0.02 0.02 0.02 0.02 0.02 0.02 0.02
0.05 0.05 0.03 0.02 0.02 0.02 0.03 0.04 0.04 0.04 0.04 0.06 0.09 0.09 0.08 0.07 0.06 0.05 0.04 0.03 0.03 0.03 0.03 0.03 0.02 0.02 0.02 0.02 0.01 0.01 0.00 0.00 0.00 0.01 0.01 0.01 0.02 0.03 0.03 0.02 0.02 0.01 0.01 0.00
0.06 0.07 0.06 0.04 0.04 0.03 0.04 0.05 0.05 0.05 0.06 0.07 0.07 0.06 0.06 0.06 0.05 0.03 0.02 0.02 0.02 0.02 0.01 0.01 0.01 0.01 0.01 0.01 0.01 0.01 0.00 0.00 0.00 0.00 0.00 0.00 0.00 0.01 0.01 0.01 0.00 0.00 0.00 0.00
0.06 0.05 0.05 0.06 0.06 0.06 0.05 0.05 0.05 0.06 0.07 0.06 0.04 0.04 0.03 0.02 0.02 0.02 0.02 0.01 0.01 0.01 0.01 0.01 0.00 0.00 0.00 0.00 0.00 0.00 0.00 0.00 0.00 0.00 0.00 0.00 0.00 0.00 0.00 0.00 0.00 0.00 0.00 0.00
0.05 0.05 0.05 0.06 0.07 0.07 0.06 0.05 0.04 0.04 0.03 0.02 0.02 0.01 0.01 0.01 0.01 0.01 0.01 0.01 0.01 0.00 0.00 0.00 0.00 0.00 0.00 0.00 0.00 0.00 0.00 0.00 0.00 0.00 0.00 0.00 0.00 0.00 0.00 0.00 0.00 0.00 0.00 0.00
0.03 0.04 0.05 0.06 0.06 0.05 0.04 0.04 0.03 0.02 0.01 0.01 0.01 0.01 0.01 0.01 0.00 0.00 0.00 0.00 0.00 0.00 0.00 0.00 0.00 0.00 0.00 0.00 0.00 0.00 0.00 0.00 0.00 0.00 0.00 0.00 0.00 0.00 0.00 0.00 0.00 0.00 0.00 0.00
0.02 0.03 0.03 0.03 0.03 0.02 0.02 0.02 0.02 0.01 0.01 0.01 0.01 0.02 0.02 0.01 0.00 0.00 0.00 0.00 0.00 0.00 0.00 0.00 0.00 0.00 0.00 0.00 0.00 0.00 0.00 0.00 0.00 0.00 0.00 0.00 0.00 0.00 0.00 0.00 0.00 0.00 0.00 0.00
0.02 0.02 0.02 0.02 0.02 0.02 0.01 0.02 0.01 0.01 0.01 0.01 0.01 0.01 0.01 0.01 0.00 0.00 0.00 0.00 0.00 0.00 0.00 0.00 0.00 0.00 0.00 0.00 0.00 0.00 0.00 0.00 0.00 0.00 0.00 0.00 0.00 0.00 0.00 0.00 0.00 0.00 0.00 0.00
0.02 0.02 0.03 0.03 0.02 0.01 0.01 0.02 0.02 0.01 0.01 0.01 0.01 0.01 0.01 0.01 0.01 0.01 0.00 0.00 0.00 0.00 0.00 0.00 0.00 0.00 0.00 0.00 0.00 0.00 0.00 0.00 0.00 0.00 0.00 0.00 0.00 0.00 0.00 0.00 0.00 0.00 0.00 0.00
0.03 0.03 0.04 0.04 0.03 0.02 0.02 0.02 0.02 0.02 0.01 0.01 0.01 0.01 0.01 0.01 0.01 0.01 0.01 0.01 0.00 0.00 0.00 0.00 0.00 0.00 0.00 0.00 0.00 0.00 0.00 0.00 0.00 0.00 0.00 0.00 0.00 0.00 0.00 0.00 0.00 0.00 0.00 0.00
MSLP
1008.38 1008.80 1009.24 1009.67 1010.06 1010.37 1010.56 1010.61 1010.53 1010.32 1010.02 1009.68 1009.36 1009.11 1008.97 1008.97 1009.10 1009.33 1009.63 1009.95 1010.25 1010.51 1010.71 1010.86 1011.00 1011.15 1011.35 1011.63 1011.99 1012.44 1012.95 1013.50 1014.06 1014.59 1015.07 1015.50 1015.88 1016.22 1016.53 1016.83 1017.14 1017.44 1017.74 1018.02
1008.54 1008.89 1009.20 1009.46 1009.66 1009.78 1009.82 1009.78 1009.67 1009.50 1009.31 1009.12 1008.98 1008.90 1008.90 1008.98 1009.14 1009.36 1009.60 1009.85 1010.08 1010.29 1010.48 1010.67 1010.87 1011.10 1011.40 1011.75 1012.18 1012.65 1013.15 1013.66 1014.15 1014.62 1015.04 1015.43 1015.78 1016.12 1016.44 1016.77 1017.10 1017.42 1017.74 1018.02
1008.85 1009.10 1009.29 1009.40 1009.44 1009.40 1009.32 1009.20 1009.07 1008.95 1008.85 1008.79 1008.78 1008.82 1008.91 1009.03 1009.19 1009.35 1009.52 1009.68 1009.83 1009.99 1010.17 1010.38 1010.64 1010.96 1011.33 1011.76 1012.24 1012.73 1013.22 1013.70 1014.14 1014.56 1014.94 1015.30 1015.65 1016.01 1016.37 1016.75 1017.13 1017.50 1017.84 1018.14
1009.25 1009.41 1009.47 1009.45 1009.35 1009.20 1009.02 1008.86 1008.73 1008.65 1008.63 1008.66 1008.75 1008.87 1009.00 1009.13 1009.25 1009.34 1009.41 1009.48 1009.56 1009.67 1009.83 1010.06 1010.36 1010.75 1011.19 1011.69 1012.20 1012.71 1013.20 1013.66 1014.07 1014.46 1014.83 1015.19 1015.58 1015.98 1016.41 1016.86 1017.30 1017.73 1018.11 1018.44
1009.66 1009.71 1009.66 1009.52 1009.32 1009.08 1008.85 1008.67 1008.56 1008.52 1008.57 1008.68 1008.84 1009.01 1009.16 1009.27 1009.34 1009.36 1009.35 1009.33 1009.34 1009.40 1009.54 1009.78 1010.12 1010.55 1011.05 1011.59 1012.14 1012.67 1013.16 1013.61 1014.02 1014.41 1014.80 1015.20 1015.64 1016.12 1016.63 1017.16 1017.68 1018.17 1018.60 1018.95
1009.97 1009.91 1009.75 1009.52 1009.24 1008.96 1008.72 1008.54 1008.46 1008.49 1008.60 1008.78 1009.00 1009.20 1009.36 1009.46 1009.49 1009.45 1009.37 1009.28 1009.23 1009.26 1009.39 1009.63 1010.00 1010.46 1011.00 1011.57 1012.14 1012.69 1013.20 1013.66 1014.09 1014.51 1014.94 1015.41 1015.92 1016.48 1017.08 1017.70 1018.29 1018.83 1019.29 1019.66
1010.12 1009.95 1009.70 1009.40 1009.08 1008.78 1008.55 1008.41 1008.39 1008.48 1008.66 1008.91 1009.18 1009.43 1009.61 1009.70 1009.71 1009.63 1009.51 1009.39 1009.31 1009.32 1009.44 1009.69 1010.07 1010.55 1011.11 1011.70 1012.29 1012.86 1013.39 1013.88 1014.35 1014.82 1015.31 1015.85 1016.45 1017.09 1017.77 1018.45 1019.10 1019.68 1020.16 1020.52
1010.08 1009.82 1009.49 1009.15 1008.81 1008.53 1008.33 1008.25 1008.30 1008.47 1008.73 1009.05 1009.38 1009.67 1009.89 1010.00 1010.01 1009.93 1009.81 1009.68 1009.60 1009.60 1009.73 1009.99 1010.37 1010.87 1011.43 1012.04 1012.65 1013.24 1013.79 1014.32 1014.84 1015.37 1015.93 1016.54 1017.21 1017.92 1018.66 1019.38 1020.06 1020.64 1021.11 1021.46
1009.90 1009.55 1009.19 1008.82 1008.49 1008.24 1008.10 1008.10 1008.22 1008.47 1008.81 1009.21 1009.60 1009.94 1010.20 1010.36 1010.40 1010.36 1010.26 1010.16 1010.10 1010.12 1010.26 1010.53 1010.92 1011.42 1011.99 1012.60 1013.22 1013.83 1014.41 1014.98 1015.55 1016.13 1016.75 1017.42 1018.14 1018.89 1019.66 1020.39 1021.06 1021.63 1022.08 1022.39
1009.64 1009.25 1008.86 1008.50 1008.21 1008.01 1007.94 1008.00 1008.20 1008.53 1008.94 1009.40 1009.85 1010.26 1010.57 1010.78 1010.88 1010.89 1010.84 1010.79 1010.77 1010.83 1010.99 1011.28 1011.68 1012.17 1012.74 1013.36 1013.98 1014.60 1015.21 1015.81 1016.42 1017.05 1017.71 1018.41 1019.15 1019.92 1020.67 1021.39 1022.03 1022.56 1022.97 1023.24
1009.39 1009.00 1008.62 1008.30 1008.05 1007.91 1007.90 1008.03 1008.30 1008.68 1009.15 1009.66 1010.16 1010.62 1010.99 1011.25 1011.42 1011.50 1011.52 1011.53 1011.57 1011.67 1011.87 1012.17 1012.58 1013.07 1013.64 1014.25 1014.87 1015.50 1016.12 1016.75 1017.38 1018.03 1018.71 1019.42 1020.16 1020.91 1021.63 1022.30 1022.89 1023.38 1023.73 1023.97
1009.23 1008.86 1008.53 1008.25 1008.07 1007.99 1008.04 1008.23 1008.54 1008.96 1009.46 1010.00 1010.54 1011.03 1011.45 1011.77 1012.00 1012.16 1012.26 1012.34 1012.44 1012.59 1012.83 1013.15 1013.56 1014.05 1014.60 1015.19 1015.81 1016.44 1017.07 1017.70 1018.34 1019.00 1019.68 1020.38 1021.09 1021.80 1022.47 1023.09 1023.62 1024.06 1024.37 1024.59
1009.17 1008.86 1008.59 1008.38 1008.26 1008.24 1008.34 1008.56 1008.91 1009.35 1009.86 1010.41 1010.97 1011.48 1011.94 1012.32 1012.61 1012.84 1013.01 1013.16 1013.33 1013.53 1013.79 1014.13 1014.54 1015.02 1015.56 1016.13 1016.74 1017.35 1017.97 1018.61 1019.25 1019.90 1020.56 1021.24 1021.91 1022.57 1023.19 1023.76 1024.24 1024.64 1024.93 1025.13
1009.18 1008.94 1008.74 1008.61 1008.55 1008.59 1008.74 1008.99 1009.35 1009.80 1010.32 1010.87 1011.43 1011.97 1012.45 1012.87 1013.23 1013.52 1013.76 1013.98 1014.20 1014.45 1014.74 1015.08 1015.49 1015.95 1016.47 1017.02 1017.60 1018.20 1018.81 1019.43 1020.06 1020.70 1021.35 1021.99 1022.64 1023.25 1023.83 1024.35 1024.80 1025.17 1025.46 1025.67
1009.18 1009.03 1008.92 1008.86 1008.87 1008.96 1009.15 1009.44 1009.81 1010.27 1010.79 1011.34 1011.91 1012.46 1012.98 1013.44 1013.85 1014.20 1014.50 1014.78 1015.05 1015.33 1015.64 1015.99 1016.38 1016.82 1017.31 1017.83 1018.38 1018.95 1019.55 1020.16 1020.78 1021.41 1022.04 1022.67 1023.29 1023.88 1024.43 1024.93 1025.36 1025.73 1026.02 1026.25
1009.11 1009.04 1009.01 1009.03 1009.11 1009.27 1009.50 1009.83 1010.23 1010.70 1011.23 1011.80 1012.39 1012.97 1013.52 1014.02 1014.48 1014.89 1015.25 1015.57 1015.88 1016.19 1016.50 1016.84 1017.22 1017.63 1018.07 1018.56 1019.08 1019.63 1020.21 1020.81 1021.42 1022.05 1022.68 1023.31 1023.92 1024.50 1025.05 1025.53 1025.97 1026.33 1026.64 1026.89
1008.93 1008.94 1008.99 1009.08 1009.24 1009.46 1009.76 1010.13 1010.58 1011.09 1011.65 1012.26 1012.88 1013.50 1014.09 1014.64 1015.15 1015.61 1016.01 1016.37 1016.70 1017.02 1017.33 1017.65 1018.00 1018.37 1018.79 1019.24 1019.73 1020.26 1020.82 1021.41 1022.03 1022.67 1023.31 1023.94 1024.56 1025.15 1025.69 1026.18 1026.62 1027.00 1027.32 1027.58
1008.65 1008.73 1008.86 1009.03 1009.26 1009.56 1009.93 1010.37 1010.88 1011.45 1012.07 1012.73 1013.40 1014.07 1014.71 1015.31 1015.86 1016.36 1016.80 1017.18 1017.52 1017.84 1018.13 1018.43 1018.74 1019.08 1019.46 1019.88 1020.34 1020.85 1021.41 1022.00 1022.63 1023.28 1023.93 1024.58 1025.21 1025.81 1026.36 1026.86 1027.30 1027.68 1028.00 1028.26
1008.35 1008.50 1008.70 1008.94 1009.26 1009.64 1010.09 1010.61 1011.20 1011.85 1012.54 1013.27 1013.99 1014.71 1015.40 1016.05 1016.63 1017.15 1017.61 1018.00 1018.34 1018.64 1018.91 1019.18 1019.46 1019.77 1020.11 1020.50 1020.94 1021.44 1022.00 1022.60 1023.23 1023.89 1024.57 1025.23 1025.87 1026.47 1027.02 1027.52 1027.95 1028.31 1028.61 1028.85
1008.16 1008.37 1008.63 1008.95 1009.35 1009.81 1010.35 1010.96 1011.63 1012.36 1013.12 1013.90 1014.68 1015.45 1016.17 1016.84 1017.44 1017.96 1018.42 1018.80 1019.13 1019.41 1019.66 1019.90 1020.15 1020.43 1020.75 1021.12 1021.55 1022.05 1022.60 1023.21 1023.85 1024.52 1025.19 1025.86 1026.49 1027.08 1027.62 1028.08 1028.48 1028.81 1029.06 1029.27
1008.19 1008.46 1008.79 1009.18 1009.64 1010.19 1010.80 1011.49 1012.23 1013.02 1013.84 1014.66 1015.47 1016.26 1016.99 1017.66 1018.25 1018.77 1019.20 1019.57 1019.87 1020.12 1020.35 1020.57 1020.81 1021.07 1021.38 1021.75 1022.18 1022.67 1023.23 1023.83 1024.47 1025.13 1025.79 1026.44 1027.04 1027.59 1028.08 1028.49 1028.83 1029.10 1029.30 1029.45
1008.54 1008.86 1009.24 1009.69 1010.22 1010.82 1011.50 1012.24 1013.03 1013.85 1014.70 1015.53 1016.35 1017.12 1017.84 1018.48 1019.04 1019.53 1019.93 1020.26 1020.54 1020.77 1020.99 1021.20 1021.43 1021.69 1022.00 1022.38 1022.81 1023.31 1023.86 1024.45 1025.08 1025.71 1026.33 1026.92 1027.47 1027.96 1028.37 1028.71 1028.98 1029.17 1029.30 1029.38
1009.22 1009.59 1010.01 1010.51 1011.08 1011.72 1012.43 1013.20 1014.00 1014.83 1015.66 1016.48 1017.26 1018.00 1018.66 1019.25 1019.77 1020.21 1020.57 1020.87 1021.12 1021.35 1021.56 1021.77 1022.01 1022.29 1022.62 1023.00 1023.45 1023.94 1024.48 1025.05 1025.64 1026.22 1026.78 1027.30 1027.76 1028.16 1028.48 1028.73 1028.91 1029.02 1029.08 1029.10
1010.17 1010.58 1011.04 1011.56 1012.16 1012.81 1013.53 1014.28 1015.07 1015.87 1016.66 1017.43 1018.15 1018.82 1019.42 1019.95 1020.40 1020.79 1021.11 1021.38 1021.62 1021.84 1022.06 1022.29 1022.56 1022.86 1023.21 1023.61 1024.06 1024.55 1025.07 1025.60 1026.13 1026.65 1027.12 1027.55 1027.91 1028.20 1028.42 1028.57 1028.66 1028.70 1028.69 1028.66
1011.28 1011.71 1012.19 1012.73 1013.33 1013.97 1014.67 1015.40 1016.14 1016.88 1017.61 1018.31 1018.96 1019.55 1020.07 1020.53 1020.92 1021.26 1021.55 1021.80 1022.04 1022.27 1022.51 1022.77 1023.07 1023.40 1023.77 1024.19 1024.63 1025.11 1025.59 1026.07 1026.53 1026.96 1027.34 1027.67 1027.92 1028.11 1028.23 1028.29 1028.30 1028.28 1028.23 1028.17
1012.39 1012.84 1013.33 1013.86 1014.44 1015.07 1015.73 1016.40 1017.09 1017.77 1018.43 1019.05 1019.61 1020.13 1020.58 1020.98 1021.33 1021.63 1021.90 1022.15 1022.39 1022.64 1022.91 1023.20 1023.53 1023.89 1024.28 1024.70 1025.13 1025.58 1026.01 1026.43 1026.82 1027.16 1027.44 1027.67 1027.83 1027.92 1027.96 1027.95 1027.91 1027.85 1027.78 1027.71
1013.37 1013.82 1014.31 1014.83 1015.38 1015.97 1016.58 1017.21 1017.84 1018.45 1019.04 1019.59 1020.10 1020.55 1020.95 1021.31 1021.63 1021.91 1022.18 1022.43 1022.69 1022.97 1023.26 1023.58 1023.93 1024.30 1024.70 1025.11 1025.52 1025.92 1026.30 1026.65 1026.96 1027.22 1027.42 1027.56 1027.64 1027.68 1027.66 1027.62 1027.55 1027.48 1027.42 1027.37
Thickness
5722 5731 5733 5734 5734 5732 5730 5723 5717 5724 5728 5740 5745 5749 5752 5755 5756 5755 5753 5752 5750 5748 5746 5744 5743 5741 5740 5738 5736 5735 5731 5727 5725 5724 5722 5719 5717 5716 5714 5712 5711 5709 5708 5707
5715 5725 5728 5725 5729 5730 5730 5728 5727 5728 5730 5741 5744 5747 5747 5749 5751 5749 5748 5748 5747 5745 5743 5742 5740 5738 5737 5735 5734 5732 5729 5727 5725 5722 5720 5718 5716 5713 5711 5709 5707 5706 5704 5703
5696 5712 5717 5705 5717 5721 5723 5725 5727 5722 5729 5735 5736 5738 5740 5742 5745 5745 5744 5744 5742 5741 5740 5740 5738 5736 5734 5733 5732 5729 5726 5724 5722 5720 5718 5716 5713 5710 5708 5706 5704 5701 5699 5698
5684 5697 5685 5702 5722 5724 5718 5718 5723 5725 5727 5729 5731 5733 5735 5737 5738 5738 5739 5739 5738 5737 5736 5736 5736 5734 5732 5730 5729 5726 5723 5721 5719 5717 5714 5711 5709 5706 5704 5702 5699 5697 5695 5693
5669 5673 5682 5700 5714 5716 5712 5709 5718 5719 5721 5723 5726 5727 5726 5731 5732 5732 5732 5732 5732 5733 5733 5732 5731 5730 5728 5725 5724 5722 5719 5716 5714 5712 5709 5706 5704 5702 5699 5697 5693 5691 5688 5686
5663 5666 5665 5690 5710 5717 5711 5697 5712 5714 5713 5715 5717 5710 5713 5722 5723 5724 5724 5724 5725 5726 5726 5726 5725 5725 5722 5719 5717 5715 5714 5712 5710 5708 5705 5702 5699 5697 5694 5690 5686 5683 5680 5677
5658 5661 5671 5692 5703 5708 5689 5693 5707 5708 5708 5708 5707 5707 5710 5713 5713 5714 5714 5715 5717 5717 5717 5718 5719 5718 5715 5712 5709 5708 5707 5705 5703 5701 5699 5696 5693 5689 5686 5682 5678 5673 5670 5666
5650 5654 5662 5688 5693 5690 5690 5698 5700 5701 5701 5700 5700 5701 5703 5703 5703 5703 5704 5705 5707 5708 5708 5708 5710 5709 5706 5702 5701 5700 5698 5696 5694 5692 5690 5687 5684 5680 5676 5673 5669 5664 5659 5655
5654 5658 5669 5677 5681 5685 5688 5689 5691 5692 5693 5694 5692 5692 5692 5692 5693 5693 5694 5694 5696 5697 5696 5696 5697 5698 5695 5693 5692 5690 5688 5685 5683 5681 5679 5677 5674 5670 5666 5662 5659 5654 5649 5644
5650 5657 5663 5668 5673 5678 5681 5683 5685 5686 5686 5686 5684 5683 5683 5682 5681 5682 5683 5683 5685 5685 5684 5684 5685 5685 5683 5682 5681 5680 5676 5673 5671 5669 5666 5663 5660 5658 5654 5650 5647 5642 5639 5634
5643 5650 5656 5661 5665 5669 5672 5675 5677 5677 5678 5677 5677 5674 5673 5672 5671 5671 5671 5671 5672 5672 5671 5671 5671 5671 5671 5670 5670 5667 5664 5661 5658 5655 5652 5648 5643 5639 5637 5634 5633 5630 5626 5623
5640 5647 5648 5651 5657 5661 5663 5665 5666 5667 5667 5668 5668 5665 5663 5661 5661 5660 5659 5660 5660 5659 5659 5658 5658 5658 5657 5658 5658 5656 5652 5648 5645 5641 5638 5634 5630 5623 5619 5618 5616 5614 5612 5609
5640 5643 5643 5646 5649 5653 5654 5656 5657 5658 5658 5657 5656 5655 5653 5651 5650 5649 5649 5648 5648 5647 5647 5646 5646 5644 5644 5645 5645 5644 5640 5636 5632 5629 5626 5622 5619 5616 5608 5601 5599 5597 5595 5594
5635 5636 5635 5638 5640 5643 5645 5646 5647 5647 5646 5646 5645 5644 5642 5640 5639 5638 5637 5636 5637 5636 5635 5635 5634 5632 5632 5633 5633 5630 5627 5624 5620 5617 5614 5610 5606 5603 5599 5594 5588 5581 5578 5577
5627 5630 5630 5630 5631 5633 5635 5636 5636 5634 5634 5633 5634 5632 5631 5630 5628 5626 5625 5626 5626 5625 5623 5623 5622 5620 5620 5621 5620 5617 5614 5611 5608 5605 5601 5597 5594 5590 5585 5580 5575 5570 5566 5562
5619 5621 5622 5623 5623 5624 5626 5627 5626 5624 5623 5623 5622 5621 5620 5619 5617 5615 5614 5615 5615 5612 5611 5611 5610 5609 5610 5610 5608 5605 5602 5600 5597 5593 5588 5585 5581 5577 5572 5567 5562 5558 5554 5549
5614 5614 5616 5616 5617 5617 5618 5619 5618 5616 5615 5614 5612 5610 5609 5608 5606 5604 5603 5603 5603 5601 5600 5600 5599 5600 5600 5600 5598 5595 5591 5588 5585 5581 5577 5573 5569 5564 5559 5555 5550 5545 5539 5535
5613 5614 5615 5615 5613 5611 5610 5610 5609 5608 5606 5604 5603 5601 5599 5598 5596 5594 5593 5593 5593 5590 5589 5589 5590 5590 5590 5589 5587 5584 5580 5577 5573 5569 5564 5560 5556 5551 5547 5542 5537 5532 5526 5521
5608 5608 5609 5608 5607 5606 5604 5603 5601 5599 5598 5596 5594 5591 5589 5587 5586 5585 5585 5585 5583 5580 5578 5579 5580 5580 5579 5578 5576 5573 5570 5566 5561 5557 5553 5548 5543 5539 5534 5529 5524 5519 5514 5509
5602 5602 5602 5602 5601 5600 5597 5595 5594 5591 5589 5587 5586 5583 5580 5578 5577 5576 5576 5573 5570 5570 5570 5571 5572 5571 5569 5567 5566 5563 5559 5555 5551 5546 5541 5537 5532 5527 5522 5517 5512 5507 5502 5497
5595 5596 5596 5595 5593 5592 5591 5589 5587 5584 5582 5581 5579 5576 5573 5570 5569 5569 5568 5565 5562 5563 5564 5564 5563 5561 5560 5557 5555 5552 5548 5544 5540 5535 5531 5526 5521 5516 5511 5505 5500 5495 5489 5484
5590 5590 5590 5589 5587 5585 5583 5582 5580 5578 5576 5574 5571 5569 5566 5564 5562 5560 5558 5557 5556 5556 5556 5555 5554 5553 5551 5548 5545 5542 5538 5533 5529 5524 5519 5515 5510 5504 5499 5493 5488 5483 5478 5472
5586 5585 5584 5583 5581 5579 5577 5575 5573 5572 5570 5567 5565 5563 5561 5558 5557 5556 5551 5549 5550 5550 5549 5547 5545 5544 5541 5538 5534 5531 5527 5522 5518 5513 5508 5503 5498 5493 5488 5482 5477 5472 5467 5462
5581 5580 5579 5577 5576 5573 5571 5568 5567 5565 5563 5561 5559 5557 5556 5553 5549 5548 5547 5545 5544 5543 5541 5538 5537 5534 5531 5527 5524 5520 5515 5511 5507 5502 5497 5492 5487 5482 5477 5472 5467 5462 5458 5453
5577 5576 5574 5572 5570 5568 5565 5563 5561 5558 5556 5554 5552 5550 5549 5548 5545 5542 5540 5539 5537 5535 5531 5528 5526 5524 5521 5517 5513 5509 5505 5501 5497 5492 5487 5482 5477 5472 5468 5463 5458 5453 5449 5444
5572 5570 5569 5567 5566 5563 5561 5559 5556 5553 5551 5548 5544 5543 5541 5539 5537 5535 5533 5531 5529 5526 5522 5519 5516 5513 5510 5506 5502 5499 5494 5490 5486 5482 5478 5473 5468 5463 5459 5454 5450 5445 5441 5437
5566 5565 5563 5561 5559 5558 5557 5555 5552 5548 5546 5544 5540 5536 5534 5532 5530 5528 5525 5522 5519 5516 5513 5509 5506 5503 5500 5496 5492 5488 5484 5480 5477 5472 5468 5464 5459 5455 5451 5447 5443 5439 5435 5431